Hourly Data Report for May 11, 2021

CARIBOU POINT (AUT)
NOVA SCOTIA
Current Station Operator: ECCC - MSC

45°46'00.000" N
62°41'00.000" W
2.40 m
8200774
71415
WBK

Download Data

Hourly Data (May 2021)
Hourly Data Report for May 11, 2021
TIME
LST
Temp Definition
°C
Dew Point Definition
°C
Rel Hum Definition
%
Precip. Amount Definition
mm

Wind Dir Definition
10's deg

Wind Spd Definition
km/h
Visibility Definition
km
Stn Press Definition
kPa
Hmdx Definition


Wind Chill Definition


Weather Definition


00:00 5.1 3.4 89 0.0 21 6   101.09     LegendNANA
01:00 4.4 3.2 92 0.0 24 5   101.07     LegendNANA
02:00 4.5 3.5 93 0.0 14 3   101.06     LegendNANA
03:00 4.9 3.0 88 0.0 16 12   101.01     LegendNANA
04:00 4.0 2.7 91 0.0 14 3   101.02     LegendNANA
05:00 4.2 2.5 89 0.0 18 6   101.03     LegendNANA
06:00 6.4 3.5 81 0.0 9 6   101.07     LegendNANA
07:00 6.8 3.3 78 0.0 12 8   101.15     LegendNANA
08:00 6.7 3.7 81 0.0 8 4   101.15     LegendNANA
09:00 7.4 3.5 76 0.0 8 7   101.16     LegendNANA
10:00 8.6 3.5 70 0.0 6 3   101.15     LegendNANA
11:00 9.3 3.2 66 0.0 10 5   101.19     LegendNANA
12:00 8.8 3.2 68 0.0 11 13   101.15     LegendNANA
13:00 9.0 3.8 70 0.0 12 13   101.12     LegendNANA
14:00 9.3 4.7 73 0.0 11 13   101.13     LegendNANA
15:00 8.6 4.8 77 0.0 10 13   101.10     LegendNANA
16:00 8.6 3.9 72 0.0 6 12   101.13     LegendNANA
17:00 7.9 3.9 76 0.0 9 20   101.12     LegendNANA
18:00 7.9 3.7 75 0.0 9 16   101.10     LegendNANA
19:00 7.0 3.6 79 0.0 7 13   101.14     LegendNANA
20:00 6.8 4.1 83 0.0 7 12   101.14     LegendNANA
21:00 6.4 3.3 81 0.0 9 26   101.09     LegendNANA
22:00 5.8 3.5 85 1.4 8 21   101.06     LegendNANA
23:00 5.9 4.2 89 0.5 8 9   101.05     LegendNANA

Notes on Data Quality.

Legend

  • E = Estimated
  • M = Missing
  • NA = Not Available*
  • [empty] = Indicates an unobserved value
Date modified: